Вернуться в каталог

THOR ABLESTAR DEB

АктивенLEO
NORAD 327·DEBRIS·🇺🇸 United States

Запущен Jun 29, 1961 с Cape Canaveral Space Force Station

Loading…

Ближайшие Пролёты (ближайшие 24 часа)

TLE

СвежийSource: Space-Track

Эпоха: Sep 14, 2026, 03:38 UTC

1 00327U 61015DD  26257.15157896  .00000129  00000-0  15851-3 0  9994
2 00327  66.5429 168.3489 0104767  74.8936 286.3703 13.90902609299117

Отслеживайте THOR ABLESTAR DEB в реальном времени с AllMySat

Download on the App Store